AQI (36)

Current Conditions for Foresthill, CA. Sunny, Dry   
Visibility: 10 miles
Space WX Alerts: WATCH:  Geomagnetic Storm Category G1 Predicted ( Latest Alert ) - Issue Time: 2018 Oct 17 1807 UTC

  Summary / Temperature 

Current Temperature
70.7°F
21.5°C
(24/hr Ago)
72.2°F
(Apparent temp)
65.9°F
Comfortable
Heat Index
69.5°F 

70.7°F/ 21.5°C
 --- Virtual Temp: 72.0°F ---

 Temp Rate:

 24/hr Difference:

 Avg Running Temp:

 Todays High:

 Todays Low:

 Y-days High:

 Y-days Low:

 Todays HeatIdx:

 Y-days HeatIdx:

 Evapotranspiration:

+1.1°F/hr 

-1.5°F

70.0°F

70.8°F 2:17pm

55.0°F 6:43am

75.6°F 12:44pm

60.2°F 6:57am

69.6°F 2:17pm

74.1°F 12:56pm

0.081 in

115' Above Ground

 Temperature:

 6'AGL VRS 115'AGL:

 Avg Running Temp:

 Humidity:

 Todays High:

 Todays Low:

 Y-days High:

 Y-days Low:

71.0°F 

+0.3°F

70.6°F

23% 

71.0°F 1:05pm

59.0°F 6:24am

78.0°F 12:47pm

63.0°F 3:06am

Temp & Humidity Graphs

  Wind 

Wind Speed

 4.0 mph

Gusting to

 8.0 mph

Wind from W

271°  W

Light breeze

 Avg speed:

 Wind Run:

 Peak Gust:

  2.0 mph 

11.0 miles

  15.0 mph 1:02am

  Almanac  

Moon age: 8 days,9 hours,40 minutes,61%

Waxing Gibbous
61%
Illuminated
8 days in cycle

 Moonrise:

 Moonset:

 Sunrise:

 Sunset:

 Solar Noon:

3:01pm

12:19am

7:16am

6:22pm

12:49pm

2min 32s less daylight tomorrow 

  Solar Radiation 

(Current Solar)
  538 W/m2 (93%)
(Todays High)
 675 W/m2@12:49pm
Feels like: 78.8°F in the sun

Rain

 Rain Today:

 Rain Rate (/hr):

 Rain last hour:

 Rain Yesterday:

 This Month:

 Season Total:

10 Days Since Last Rain Day

0.00 in

0.000 in

0.00 in

0.00 in

0.92 in

0.92 in

Updated Time

Updated: 10/17/18  2:48pm

(Updated  sec ago)

Humidity & Barometer

 Humidity:

 Wetbulb:

 Dew Point:

 Barometer:

23% 

55.3°F 

31.1°F 

30.064 inHg 

 Baro Trend:  Falling Slowly 
Northern Calif
Preparedness
Fire 
Level 

    UV Index  

(Current UV)
3.0  Medium
(Todays High) @ 12:29pm
4.5   Medium

National Weather Service Forecast

This
Afternoon
This Afternoon: Sunny
Sunny
Tonight

Tonight: Clear
Clear
Thursday

Thursday: Sunny
Sunny
Thursday
Night
Thursday Night: Clear
Clear
Friday

Friday: Sunny
Sunny
Friday
Night
Friday Night: Clear
Clear
Hi 72 °F ↓ Lo 53 °F Hi 73 °F ↓ Lo 54 °F Hi 76 °F Lo 56 °F

Foresthill Probe 2 Stats  
Foresthill Probe 2: is located on Thomas Street
at 3000 feet. The main Foresthill Weather site
is located on Melody ln at the 2860 foot elevation

Calm
70.9°F
21.6°C
Temp Rate:
+0.9°F
Calm
Gusting to
3.0 mph
(Humidity)
23%
Wind from N
360°  N
Updated: 17/10/18 - 14:43:07
 Todays High: 71.0°F 14:25
 Todays Low: 52.9°F 07:14
 Rain Today: 0.00 in
 Season Total: 0.63 in

Foresthill Wx: Monthly,Yearly, Highs and Lows 

Foresthill  
This Weather Data is coming from the main Foresthill
Weather site located on Melody ln at the 2860 foot
elevation
Not Foresthill Probe 2
Weather Data
Month
  High
Month
  Low
Year
High
Year
Low
Temp 76.9°F
10/2/18
48.1°F
10/5/18
93.9°F
8/10/18
21.9°F
2/23/18
Humidity 100%
10/5/18
9%
10/15/18
100%
1/8/18
9%
10/15/18
Heat Index 76.7°F
10/2/18
50.6°F
10/7/18
93.3°F
7/25/18
27.1°F
2/20/18
Wind Chill 76.9°F
10/2/18
44.2°F
10/5/18
93.9°F
8/10/18
9.2°F
2/23/18
Wind Gust 43 mph
10/14/18
0 mph
10/1/18
43 mph
3/1/18
0 mph
1/1/18
Barometer 30.18 in
10/15/18
29.75 in
10/9/18
30.55 in
1/27/18
29.60 in
6/16/18
ET 0.20 in
10/14/18
0.00 in
10/1/18
0.25 in
6/24/18
0.00 in
1/1/18
Dew Point 55.9°F
10/3/18
7.1°F
10/15/18
66.9°F
7/24/18
7.1°F
10/15/18
Pacific Satellite US Radar Satellite Imagery Sacramento,CA.  (click to enlarge)
NWS Weather Forecast - Summary
Updated: Wednesday, October 17, 2018 - 4:19am PDT
Current Interstate Highway Conditions for I-80 & US-50

[I 80: IN THE SAN FRANCISCO BAY AREA - SOLANO CO]
no traffic restrictions are reported for this area.

[I 80: IN THE NORTHERN CALIFORNIA AREA & SIERRA NEVADA]
no traffic restrictions are reported for this area.
capital city freeway
southbound traffic is reduced to 2 lanes at the jct of us 50 /in sacramento/ (SACRAMENTO CO) - due to a traffic collision

[US 50: IN THE SACRAMENTO VALLEY & THE LAKE TAHOE BASIN]
  1-way controlled traffic at various locations from 0. 8 mi west of echo summit /at echo lake rd/ to 0. 8 mi east of echo summit (EL DORADO CO) from 6:00am to 5:00pm on 10/17/18 - due to maintenance
capital city freeway
southbound traffic is reduced to 2 lanes at the jct of /in sacramento/ (sacramento co) - due to a traffic collision
NWS Weather Forecast: This Afternoon and Tonight (Updated: Wed, 17-Oct-2018 1:45am PDT)
This
Afternoon
This Afternoon: Sunny
Sunny

Hi 72 °F ↓
NWS forecast: Sunny. High near 72, with temperatures falling to around 68 in the afternoon. West southwest wind around 6 mph.
Tonight

Tonight: Clear
Clear

Lo 53 °F
NWS forecast: Clear, with a low around 53. Northeast wind 3 to 7 mph.
YR.NO 10 Day Weather forecast
Last update: 10/17/2018 @ 00:37
Next update: 10/17/2018 @ 13:00
Provided by: 22
      Temperature Precipitation Pressure Wind  
Today
10/17/2018
13:00 18:00 72°F   30.07 inHg Light breeze from west-southwest 5 mph
  18:00 00:00 64°F   30.03 inHg Light air from west-southwest 2 mph
    (Click to enlarge)
meteogram

    Forecast for next 9 days

      Temperature Precip Pressure Wind  
Thursday
10/18/2018
00:00 06:00 46°F   30.09 inHg Light breeze from east-northeast 5 mph
  06:00 12:00 43°F   30.10 inHg Light breeze from east-northeast 6 mph
  12:00 18:00 72°F   30.11 inHg Light breeze from west 4 mph
  18:00 00:00 63°F   30.07 inHg Light air from west-northwest 3 mph
      Temperature Precip Pressure Wind  
Friday
10/19/2018
00:00 06:00 46°F   30.11 inHg Light breeze from east-northeast 7 mph
  06:00 12:00 50°F   30.11 inHg Light breeze from east-northeast 6 mph
  12:00 18:00 75°F   30.11 inHg Light breeze from west-southwest 5 mph
  17:00 23:00 72°F   30.02 inHg Light breeze from west 4 mph
  23:00 05:00 55°F   30.03 inHg Light breeze from east-northeast 5 mph
      Temperature Precip Pressure Wind  
Saturday
10/20/2018
05:00 11:00 50°F   30.02 inHg Light breeze from east-northeast 5 mph
  11:00 17:00 73°F   30.02 inHg Light air from southwest 3 mph
  17:00 23:00 70°F   29.95 inHg Light air from west-southwest 3 mph
  23:00 05:00 48°F   30.00 inHg Light breeze from east-northeast 4 mph
      Temperature Precip Pressure Wind  
Sunday
10/21/2018
05:00 11:00 45°F   29.98 inHg Light breeze from east-northeast 6 mph
  11:00 17:00 72°F   30.00 inHg Light breeze from southwest 4 mph
  17:00 23:00 68°F   29.95 inHg Light air from west-southwest 3 mph
  23:00 05:00 46°F   29.97 inHg Light breeze from east-northeast 5 mph
      Temperature Precip Pressure Wind  
Monday
10/22/2018
05:00 11:00 43°F   29.96 inHg Light breeze from east-northeast 6 mph
  11:00 17:00 70°F   29.98 inHg Light breeze from west-southwest 4 mph
  17:00 23:00 66°F   29.95 inHg Light breeze from west-southwest 5 mph
  23:00 05:00 45°F   29.99 inHg Light air from east-northeast 3 mph
      Temperature Precip Pressure Wind  
Tuesday
10/23/2018
05:00 11:00 43°F   29.97 inHg Light breeze from east-northeast 4 mph
  11:00 17:00 68°F   30.01 inHg Light air from southwest 2 mph
  17:00 23:00 64°F   29.96 inHg Light air from west-southwest 3 mph
  23:00 05:00 45°F   29.98 inHg Light breeze from east-northeast 4 mph
      Temperature Precip Pressure Wind  
Wednesday
10/24/2018
05:00 11:00 45°F   29.98 inHg Light breeze from east-northeast 6 mph
  11:00 17:00 66°F   30.01 inHg Light breeze from southwest 4 mph
  17:00 23:00 63°F   29.98 inHg Light breeze from west-southwest 5 mph
  23:00 05:00 45°F   30.02 inHg Light breeze from east-northeast 5 mph
      Temperature Precip Pressure Wind  
Thursday
10/25/2018
05:00 11:00 43°F   29.99 inHg Light breeze from east-northeast 5 mph
  11:00 17:00 66°F   29.99 inHg Light breeze from south 7 mph
  17:00 23:00 61°F 0.59 in 29.94 inHg Light breeze from southwest 7 mph
  23:00 05:00 52°F 0.95 in 29.93 inHg Light breeze from south-southwest 7 mph
      Temperature Precip Pressure Wind  
Friday
10/26/2018
05:00 11:00 50°F 0.05 in 29.96 inHg Light breeze from south-southwest 7 mph
  11:00 17:00 52°F   30.08 inHg Light air from north-northwest 2 mph

NOAA Local Storm Report
4 MILES SOUTHEAST OF TEATABLE KEY   ( More )
DATE
10/16/2018
TIME
3:52 PM
COUNTY
GMZ042
STATE
FL
GEOGRAPHIC
24.85N 80.62W
SOURCE
MESONET
MARINE THUNDERSTORM WIND MEASURED AT 40 MPH
a marine shower produced a wind gust of 40 mph... 35 knots from the southeast that was measured by the weatherflow mesonet station located on alligator reef light... Site xalg at 352 pm edt.
How Close Are We To this Month's Temperature Record ?
Updated Wednesday, Oct 17, 2018- 2:40:01 PM

Current Temperature: 70.7°F

October's High: Temperature Record 90.8°F - Set on Mon, Oct 1, 2012 - 2:51:00 PM
We are currently 20.1°F Less than this Month's record High

October's Low: Temperature Record 38.8°F - Set on Tue, Oct 23, 2012 - 11:59:00 PM
We are currently 31.9°F More than this Month's record Low

Weather History For Wednesday, October 17, 2018


On this Day - In Weather History ...
Data courtesy of weatherforyou.com
powered by Cumulus v1.9.3 (1059)
Ambient Weather VWS v14.00
Top Contact Website Map Copyright © 2007 - 2018 Foresthillweather.com Never base important decisions on this or any weather information obtained from the Internet